Location: Korczew
(51.3586°N, 19.4491°E)
Time: 07:43:39
(UTC+00:00)

USA 229 - Pass Details

Date: 19 May 2025
Orbit: 872 x 1339 km, 63.4° (Epoch: 10 June)

Event Time Altitude Azimuth Distance (km) Brightness Sun altitude
Exits shadow 21:33:30 25° 143° (SE) 1,808 4.4 -17.2°
Maximum altitude 21:35:21 30° 114° (ESE) 1,680 4.4 -17.3°
Drops below altitude 10° 21:40:55 10° 57° (ENE) 2,849 6.2 -17.5°
Sets 21:44:00 0° 47° (NE) 3,886 7.0 -17.7°
